Regional Weather Roundup
Issued by NWS

Home | Current Version | Previous Version | Graphics & Text | Print | Product List | Glossary On
Versions: 1 2 3 4 5 6 7 8 9 10 11 12 13 14 15 16 17 18 19 20 21 22 23 24 25 26 27 28 29 30 31 32 33 34 35 36 37 38 39 40 41 42 43 44 45 46 47 48 49 50
000
ASUS43 KDTX 290101
RWRMI
MICHIGAN HOURLY REGIONAL WEATHER ROUNDUP
NATIONAL WEATHER SERVICE DETROIT/PONTIAC MI
900 PM EDT TUE MAR 28 2017

NOTE: "FAIR" INDICATES FEW OR NO CLOUDS BELOW 12,000 FEET WITH NO
SIGNIFICANT WEATHER AND/OR OBSTRUCTION TO VISIBILITY.

MIZ047>049-052>055-059>063-066>070-074>076-081>083-290200-
SOUTHEAST LOWER MICHIGAN

CITY           SKY/WX    TMP DP  RH WIND       PRES   REMARKS
ADRIAN         CLEAR     42  37  82 NE7       30.18R
ALMA           CLEAR     42  38  87 N6        30.19R
ANN ARBOR      PTCLDY    41  36  82 NW3       30.16R
BAD AXE        CLEAR     35  30  83 NE3       30.20R
CARO           CLEAR     37  33  87 N3        30.19R
DETROIT CITY   PTCLDY    44  36  73 NE8       30.17R
DETROIT        PTCLDY    46  37  71 CALM      30.16R
FLINT          CLEAR     42  34  73 N6        30.18R
GROSSE ILE     CLEAR     42  36  79 E7        30.16R
HILLSDALE      CLEAR     39  36  87 CALM      30.16R
HOWELL         CLEAR     41  33  74 CALM      30.17R

CITY           SKY/WX    TMP DP  RH WIND       PRES   REMARKS
JACKSON        CLEAR     42  34  73 CALM      30.17R
LAMBERTVILLE   MOCLDY    47  39  74 CALM      30.16R
LANSING        CLEAR     42  33  70 CALM      30.18R
LAPEER         FAIR      40  33  76 CALM      30.18R
MASON          CLEAR     42  36  79 CALM      30.18R
MONROE         CLEAR     43  39  86 W8        30.15R
MT. CLEMENS    CLEAR     40  36  86 N9        30.15R WCI  33
PONTIAC        CLEAR     42  33  70 N6        30.16R
PORT HOPE        N/A     35  32  88 CALM      30.19R
PORT HURON     CLEAR     37  30  75 N7        30.18R WCI  32
TRI CITIES     CLEAR     39  35  86 NE7       30.21R WCI  34
MIDLAND        FAIR      38  31  76 NE3       30.20R
TROY           CLEAR     44  34  67 N8        30.18R
SAGINAW HB     CLEAR     37  34  87 N6        30.20R WCI  33
$$
MIZ043>046-050>051-056>058-064>065-071>073-077>080-290200-
SOUTHWEST LOWER MICHIGAN

CITY           SKY/WX    TMP DP  RH WIND       PRES   REMARKS
BATTLE CREEK   CLEAR     43  36  76 NE3       30.17R
BENTON HARBOR  CLOUDY    39  35  86 VRB3      30.18R
BIG RAPIDS     CLEAR     46  33  59 CALM      30.16R
COLDWATER      CLEAR     41  37  87 NE3       30.17R
FREMONT        FAIR      47  37  69 CALM      30.17R
HOLLAND        CLEAR     38  35  89 W3        30.18R
GRAND RAPIDS   PTCLDY    44  37  76 S5        30.17R
IONIA          FAIR      42  36  79 CALM      30.17R
KALAMAZOO      CLEAR     42  35  76 CALM      30.17S
LUDINGTON      CLEAR     36  35  94 N5        30.18R WCI  32
MARSHALL       PTCLDY    42  35  75 CALM      30.16S
MOUNT PLEASANT CLEAR     45  37  72 SE7       30.18R
MUSKEGON       PTCLDY    35  34  96 W3        30.20R
SOUTH HAVEN    CLEAR     35  34  96 CALM      30.19R
$$
MIZ016>042-290200-
NORTHERN LOWER MICHIGAN

CITY           SKY/WX    TMP DP  RH WIND       PRES   REMARKS
ALPENA         CLEAR     40  31  70 NW3       30.20R
BEAVER ISLAND  CLEAR     31  30  98 CALM      30.21S
BELLAIRE       CLEAR     40  33  77 SW3       30.21R
CADILLAC       CLEAR     43  34  71 N6        30.19R
CHARLEVOIX     CLEAR     33  32  96 CALM      30.25R
FRANKFORT      CLEAR     39  32  77 NE5       30.21R
GAYLORD        CLEAR     43  26  51 CALM      30.19R
GRAYLING       CLEAR     39  28  65 N5        30.20R
HARBOR SPRINGS CLEAR     29  29  99 CALM      30.21S
HOUGHTON LAKE  CLEAR     47  30  51 NE5       30.19R
MANISTEE       CLEAR     37  35  92 N6        30.20R WCI  32
OSCODA         CLEAR     40  28  62 CALM      30.20R
PELLSTON       CLEAR     38  30  73 CALM      30.21R
ROGERS CITY    CLEAR     40  31  70 W3        30.20S
TRAVERSE CITY  PTCLDY    36  32  85 CALM      30.21R
$$
MIZ007>008-015-290200-
EASTERN UPPER MICHIGAN

CITY           SKY/WX    TMP DP  RH WIND       PRES   REMARKS
KINROSS        CLEAR     37  30  75 NW6       30.20R WCI  32
MACKINAC ISLAN CLEAR     35  31  85 W7        30.20R WCI  29
NEWBERRY       CLEAR     40  29  66 N6        30.20R
S. S. MARIE    CLEAR     39  29  67 W6        30.19S WCI  35
MUNISING         N/A     35  32  88 N7        30.23R WCI  29
$$
MIZ004>006-011>014-085-290200-
CENTRAL UPPER MICHIGAN

CITY           SKY/WX    TMP DP  RH WIND       PRES   REMARKS
MANISTIQUE     CLEAR     29  29  98 CALM      30.21R
ESCANABA       MOCLDY    30  29  96 CALM      30.23R
MENOMINEE        N/A    N/A N/A N/A MISG        N/A
SAWYER-GWINN   CLEAR     37  30  75 CALM      30.22R
$$
MIZ001>003-009>011-084-290200-
WESTERN UPPER MICHIGAN

CITY           SKY/WX    TMP DP  RH WIND       PRES   REMARKS
IRON MOUNTAIN  MOCLDY    47  29  49 E8        30.19R
HOUGHTON       CLEAR     37  28  70 E3        30.22R
COPPER HARBOR    N/A     32  29  88 CALM      30.25R
IRONWOOD       CLEAR     44  31  60 CALM      30.20R
$$

ABBREVIATIONS USED IN REMARKS
   TC - TEMPERATURE IN CELSIUS
  WCI - WIND CHILL INDEX
   HX - HEAT INDEX
  VSB - VISIBILITY




USA.gov is the U.S. government's official web portal to all federal, state and local government web resources and services.